Location: Hurstbourne Priors
(51.2000°N, 1.3667°W)
Time: 13:55:07
(UTC+00:00)

Cosmos 2360 - Pass Details

Date: 09 April 2020
Orbit: 847 x 855 km, 70.8° (Epoch: 25 May)

Event Time Altitude Azimuth Distance (km) Brightness Sun altitude
Rises 22:02:22 0° 328° (NNW) 3,423 8.8 -25.0°
Reaches altitude 10° 22:04:50 10° 326° (NW) 2,484 7.7 -25.2°
Maximum altitude 22:10:30 68° 245° (WSW) 915 4.3 -25.7°
Enters shadow 22:11:13 61° 202° (SSW) 960 4.2 -25.8°
